Location: Newark
(46.2048°N, 11.0412°E)
Time: 09:37:46
(UTC+00:00)

Envisat - Visible Passes

Search period start: 15 September 2019 00:00
Search period end: 25 September 2019 00:00
Orbit: 764 x 766 km, 98.1° (Epoch: 15 September)

Date Brightness Start Highest point End Pass type
(mag) Time Alt. Az. Time Alt. Az. Time Alt. Az.
16 Sep 5.7 18:34:30 10° SW 18:38:17 21° W 18:42:05 10° NW visible
17 Sep 4.4 17:56:25 10° S 18:01:14 43° W 18:06:05 10° NNW visible
18 Sep 6.2 19:02:10 10° WSW 19:04:07 12° W 19:06:05 10° WNW visible
19 Sep 5.4 18:22:43 10° SSW 18:26:55 26° W 18:31:09 10° NW visible
20 Sep 4.0 17:44:58 10° S 17:49:56 54° W 17:54:56 10° NNW visible
21 Sep 6.0 18:49:46 10° SW 18:52:43 15° W 18:55:40 10° NW visible
22 Sep 5.0 18:11:04 10° SSW 18:15:34 32° W 18:20:07 10° NNW visible
23 Sep 3.5 17:33:36 10° S 17:38:39 67° WSW 17:43:43 10° NNW visible
24 Sep 5.8 18:37:44 10° SW 18:41:19 19° W 18:44:56 10° NW visible
